Regional Weather Roundup
Issued by NWS Albany, NY

Home | Current Version | Previous Version | Text Only | Print | Product List | Glossary On
Versions: 1 2 3 4 5 6 7 8 9 10 11 12 13 14 15 16 17 18 19 20 21 22 23 24 25 26 27 28
000
ASUS41 KALY 211410
RWRALY

NEW YORK STATE HOURLY WEATHER ROUNDUP
NATIONAL WEATHER SERVICE ALBANY NY
900 AM EST TUE NOV 21 2017

NOTE: "FAIR" INDICATES FEW OR NO CLOUDS BELOW 12,000 FEET WITH NO
SIGNIFICANT WEATHER AND/OR NO OBSTRUCTIONS TO VISIBILITY.

NYZ032-033-038>043-046>054-057>066-NYZ062>081-082-084-211500-
EAST


CITY           SKY/WX    TMP DP  RH WIND       PRES   REMARKS
ALBANY         MOSUNNY   40  23  50 S13       30.01F WCI  32
GLENS FALLS    SUNNY     37  27  67 S9        29.99F WCI  30
POUGHKEEPSIE   SUNNY     42  26  53 S3        30.09F
NEWBURGH       SUNNY     41  28  60 CALM      30.10S
MONTGOMERY     SUNNY     37  26  64 CALM      30.07F
WHITE PLAINS   SUNNY     45  30  55 S6        30.12S
ISLIP          MOSUNNY   53  36  52 SW10G22   30.15S
NEW YORK CITY  MOSUNNY   48  32  53 SW17      30.13F
CENTRAL PARK   SUNNY     47  32  56 MISG      30.14F
$$

NYZ005>009-017-018-044>046-055-056-211500-
CENTRAL


CITY           SKY/WX    TMP DP  RH WIND       PRES   REMARKS
FULTON         CLOUDY    45  22  40 S20G29    29.82F
SYRACUSE       PTSUNNY   42  20  41 S15       29.85F
ROME           SUNNY     41  24  51 E8        29.92F
ELMIRA         SUNNY     45  23  42 SW9G21    29.91F
BINGHAMTON     SUNNY     38  21  50 S9        29.93S WCI  31
MONTICELLO     CLOUDY    34  25  69 SE3       30.04S
$$

NYZ026>034-041>043-087-211500-
NORTH


CITY           SKY/WX    TMP DP  RH WIND       PRES   REMARKS
WATERTOWN      CLOUDY    44  24  45 S9G18     29.79F
FORT DRUM      NOT AVBL
OGDENSBURG     FAIR      42  28  57 S15G25    29.75F
MASSENA        MOSUNNY   40  29  64 S12       29.76F WCI  33
SARANAC LAKE   SUNNY     36  26  67 SW10G21   29.79F WCI  28
PLATTSBURGH    SUNNY     37  29  72 CALM      29.86F
$$

NYZ001>004-010>016-019>021-085-211500-
WEST


CITY           SKY/WX    TMP DP  RH WIND       PRES   REMARKS
NIAGARA FALLS  SUNNY     48  26  42 SW25G36   29.72F
BUFFALO        PTSUNNY   44  23  43 S20       29.76F
DUNKIRK        SUNNY     43  23  45 S22G32    29.79F
JAMESTOWN      SUNNY     39  21  48 S16G23    29.82F WCI  30
WELLSVILLE     SUNNY     44  17  33 SW14G25   29.86F
ROCHESTER      CLOUDY    45  23  42 SW17      29.79S
PENN YAN       CLOUDY    43  19  38 S21G32    29.84F
$$

             KEY
       WCI = WIND CHILL INDEX
       VSB = VISIBILITY
       HX  = HEAT INDEX
$$




USA.gov is the U.S. government's official web portal to all federal, state and local government web resources and services.